When you browse on this site, cookies collect data to enhance your experience and personalize the content and advertising you see.
Visit our Privacy Policy to learn more. By continuing to use the site, you agree to this use of cookies and data.
  • In Switzerland
  • List of Countries
  • For 7 days
  • Water Temperature
  • Satellite Maps
  • Weather Map
  • Weather Widgets
  • user-avatar
    Login

    Hourly Weather Tovste

    Today, 20 July, Saturday

    Time Temperature Precipitation Wind Pressure Humidity
    00:00 +17°C° 0 mm 2 mps 754 mmHg 75%
    01:00 +17°C° 0 mm 2 mps 754 mmHg 77%
    02:00 +17°C° 0 mm 2 mps 755 mmHg 74%
    03:00 +17°C° 0 mm 2 mps 755 mmHg 77%
    04:00 +17°C° 0 mm 2 mps 755 mmHg 79%
    05:00 +17°C° 0 mm 2 mps 755 mmHg 81%
    06:00 +19°C° 0 mm 2 mps 756 mmHg 74%
    07:00 +21°C° 0 mm 2 mps 756 mmHg 68%
    08:00 +24°C° 0 mm 2 mps 756 mmHg 62%
    09:00 +25°C° 0 mm 2 mps 756 mmHg 56%
    10:00 +27°C° 0 mm 2 mps 756 mmHg 51%
    11:00 +28°C° 0 mm 3 mps 756 mmHg 45%
    12:00 +28°C° 0 mm 3 mps 756 mmHg 45%
    13:00 +28°C° 0 mm 3 mps 756 mmHg 44%
    14:00 +28°C° 0 mm 3 mps 756 mmHg 43%
    15:00 +28°C° 0 mm 3 mps 756 mmHg 46%
    16:00 +27°C° 0 mm 3 mps 756 mmHg 49%
    17:00 +27°C° 0 mm 3 mps 756 mmHg 52%
    18:00 +25°C° 0 mm 2 mps 756 mmHg 56%
    19:00 +24°C° 0 mm 2 mps 756 mmHg 60%
    20:00 +23°C° 0 mm 1 mps 756 mmHg 64%
    21:00 +22°C° 0 mm 1 mps 756 mmHg 66%
    22:00 +21°C° 0 mm 1 mps 756 mmHg 67%
    23:00 +18°C° 0 mm 0 mps 756 mmHg 69%

    Tomorrow, 21 July, Sunday

    Time Temperature Precipitation Wind Pressure Humidity
    00:00 +18°C° 0 mm 0 mps 756 mmHg 70%
    01:00 +18°C° 0 mm 0 mps 756 mmHg 71%
    02:00 +17°C° 0 mm 0 mps 756 mmHg 71%
    03:00 +17°C° 0 mm 0 mps 756 mmHg 72%
    04:00 +17°C° 0 mm 0 mps 756 mmHg 73%
    05:00 +18°C° 0 mm 0 mps 756 mmHg 73%
    06:00 +22°C° 0 mm 1 mps 756 mmHg 67%
    07:00 +23°C° 0 mm 1 mps 756 mmHg 61%
    08:00 +25°C° 0 mm 1 mps 756 mmHg 55%
    09:00 +27°C° 0 mm 2 mps 756 mmHg 52%
    10:00 +28°C° 0 mm 2 mps 756 mmHg 48%
    11:00 +29°C° 0 mm 3 mps 756 mmHg 45%
    12:00 +29°C° 0 mm 3 mps 755 mmHg 44%
    13:00 +30°C° 0 mm 3 mps 755 mmHg 42%
    14:00 +30°C° 0 mm 3 mps 755 mmHg 41%
    15:00 +30°C° 0.1 mm 3 mps 755 mmHg 43%
    16:00 +30°C° 0.1 mm 2 mps 755 mmHg 46%
    17:00 +29°C° 0.1 mm 2 mps 755 mmHg 48%
    18:00 +27°C° 0.1 mm 2 mps 754 mmHg 53%
    19:00 +26°C° 0.1 mm 2 mps 754 mmHg 59%
    20:00 +24°C° 0.1 mm 2 mps 754 mmHg 64%
    21:00 +23°C° 0 mm 1 mps 755 mmHg 68%
    22:00 +22°C° 0 mm 1 mps 755 mmHg 72%
    23:00 +21°C° 0 mm 1 mps 755 mmHg 75%

    Day after tomorrow, 22 July, Monday

    Time Temperature Precipitation Wind Pressure Humidity
    00:00 +21°C° 0 mm 1 mps 755 mmHg 79%
    01:00 +21°C° 0 mm 1 mps 754 mmHg 82%
    02:00 +18°C° 0 mm 0 mps 754 mmHg 85%
    03:00 +20°C° 0 mm 1 mps 754 mmHg 85%
    04:00 +20°C° 0 mm 1 mps 754 mmHg 85%
    05:00 +21°C° 0 mm 1 mps 754 mmHg 85%
    06:00 +23°C° 0 mm 1 mps 754 mmHg 77%
    07:00 +24°C° 0 mm 1 mps 754 mmHg 70%
    08:00 +26°C° 0 mm 1 mps 754 mmHg 63%
    09:00 +28°C° 0.2 mm 2 mps 754 mmHg 59%
    10:00 +29°C° 0.2 mm 2 mps 754 mmHg 55%
    11:00 +30°C° 0.2 mm 3 mps 754 mmHg 51%
    12:00 +30°C° 0.1 mm 3 mps 753 mmHg 50%
    13:00 +30°C° 0.1 mm 4 mps 753 mmHg 48%
    14:00 +32°C° 0.1 mm 4 mps 752 mmHg 47%
    15:00 +29°C° 0.3 mm 3 mps 752 mmHg 54%
    16:00 +28°C° 0.3 mm 2 mps 752 mmHg 60%
    17:00 +27°C° 0.3 mm 2 mps 752 mmHg 66%
    18:00 +26°C° 0.4 mm 2 mps 752 mmHg 71%
    19:00 +24°C° 0.4 mm 2 mps 752 mmHg 76%
    20:00 +23°C° 0.4 mm 2 mps 752 mmHg 81%
    21:00 +23°C° 0 mm 2 mps 752 mmHg 84%
    22:00 +21°C° 0 mm 2 mps 752 mmHg 88%
    23:00 +20°C° 0 mm 2 mps 752 mmHg 91%

    23 July, Tuesday

    Time Temperature Precipitation Wind Pressure Humidity
    00:00 +20°C° 0 mm 2 mps 752 mmHg 91%
    01:00 +20°C° 0 mm 2 mps 751 mmHg 92%
    02:00 +19°C° 0 mm 2 mps 751 mmHg 93%
    03:00 +19°C° 0.2 mm 3 mps 751 mmHg 93%
    04:00 +19°C° 0.2 mm 3 mps 751 mmHg 93%
    05:00 +19°C° 0.2 mm 3 mps 751 mmHg 92%
    06:00 +20°C° 0.2 mm 3 mps 751 mmHg 89%
    07:00 +20°C° 0.2 mm 3 mps 751 mmHg 86%
    08:00 +21°C° 0.2 mm 3 mps 751 mmHg 83%
    09:00 +22°C° 0.1 mm 3 mps 751 mmHg 75%
    10:00 +25°C° 0.1 mm 3 mps 752 mmHg 67%
    11:00 +26°C° 0.1 mm 3 mps 752 mmHg 59%
    12:00 +26°C° 0.5 mm 4 mps 752 mmHg 60%
    13:00 +26°C° 0.5 mm 4 mps 751 mmHg 61%
    14:00 +26°C° 0.5 mm 4 mps 751 mmHg 62%
    15:00 +25°C° 1.1 mm 4 mps 751 mmHg 66%
    16:00 +25°C° 1.1 mm 4 mps 751 mmHg 71%
    17:00 +23°C° 1.1 mm 5 mps 751 mmHg 75%
    18:00 +22°C° 0.4 mm 4 mps 751 mmHg 79%
    19:00 +20°C° 0.4 mm 4 mps 751 mmHg 83%
    20:00 +19°C° 0.4 mm 3 mps 751 mmHg 88%
    21:00 +19°C° 0 mm 3 mps 751 mmHg 88%
    22:00 +18°C° 0 mm 2 mps 752 mmHg 89%
    23:00 +18°C° 0 mm 2 mps 752 mmHg 89%

    24 July, Wednesday

    Time Temperature Precipitation Wind Pressure Humidity
    00:00 +17°C° 0 mm 2 mps 752 mmHg 90%
    01:00 +17°C° 0 mm 2 mps 752 mmHg 90%
    02:00 +17°C° 0 mm 2 mps 751 mmHg 91%
    03:00 +16°C° 0 mm 2 mps 751 mmHg 92%
    04:00 +16°C° 0 mm 1 mps 752 mmHg 93%
    05:00 +16°C° 0 mm 1 mps 752 mmHg 93%
    06:00 +19°C° 0 mm 1 mps 752 mmHg 88%
    07:00 +20°C° 0 mm 1 mps 752 mmHg 82%
    08:00 +22°C° 0 mm 1 mps 752 mmHg 76%
    09:00 +23°C° 0 mm 1 mps 752 mmHg 70%
    10:00 +25°C° 0 mm 1 mps 752 mmHg 63%
    11:00 +26°C° 0 mm 1 mps 752 mmHg 56%
    12:00 +27°C° 0.1 mm 1 mps 752 mmHg 53%
    13:00 +27°C° 0.1 mm 2 mps 751 mmHg 50%
    14:00 +28°C° 0.1 mm 2 mps 751 mmHg 47%
    15:00 +28°C° 0.1 mm 2 mps 751 mmHg 49%
    16:00 +27°C° 0.1 mm 2 mps 751 mmHg 51%
    17:00 +27°C° 0.1 mm 3 mps 751 mmHg 53%
    18:00 +26°C° 0 mm 2 mps 751 mmHg 59%
    19:00 +24°C° 0 mm 2 mps 751 mmHg 66%
    20:00 +21°C° 0 mm 2 mps 751 mmHg 72%
    21:00 +20°C° 0 mm 2 mps 751 mmHg 77%
    22:00 +19°C° 0 mm 2 mps 751 mmHg 82%
    23:00 +18°C° 0 mm 3 mps 751 mmHg 87%

    25 July, Thursday

    Time Temperature Precipitation Wind Pressure Humidity
    00:00 +18°C° 0 mm 3 mps 751 mmHg 89%
    01:00 +18°C° 0 mm 3 mps 751 mmHg 90%
    02:00 +18°C° 0 mm 2 mps 751 mmHg 92%
    03:00 +18°C° 0 mm 3 mps 751 mmHg 92%
    04:00 +18°C° 0 mm 3 mps 751 mmHg 91%
    05:00 +18°C° 0 mm 3 mps 751 mmHg 91%
    06:00 +19°C° 0 mm 3 mps 751 mmHg 86%
    07:00 +20°C° 0 mm 3 mps 751 mmHg 80%
    08:00 +22°C° 0 mm 4 mps 751 mmHg 75%
    09:00 +22°C° 0.4 mm 4 mps 751 mmHg 77%
    10:00 +22°C° 0.4 mm 4 mps 750 mmHg 78%
    11:00 +23°C° 0.4 mm 4 mps 750 mmHg 79%
    12:00 +23°C° 0.7 mm 4 mps 750 mmHg 76%
    13:00 +25°C° 0.7 mm 5 mps 750 mmHg 73%
    14:00 +26°C° 0.7 mm 5 mps 750 mmHg 70%
    15:00 +26°C° 0.4 mm 5 mps 750 mmHg 70%
    16:00 +26°C° 0.4 mm 5 mps 750 mmHg 70%
    17:00 +27°C° 0.4 mm 5 mps 750 mmHg 70%
    18:00 +25°C° 0.3 mm 5 mps 750 mmHg 76%
    19:00 +23°C° 0.3 mm 4 mps 750 mmHg 83%
    20:00 +21°C° 0.3 mm 4 mps 750 mmHg 89%
    21:00 +21°C° 0 mm 4 mps 750 mmHg 90%
    22:00 +21°C° 0 mm 4 mps 750 mmHg 90%
    23:00 +20°C° 0 mm 5 mps 750 mmHg 90%
    Show more